| time (UTC) | temp C | wind direction | speed KPH | gust KPH | rain 1hr cm | rain 24hr cm | rain mn cm | humidity % | barometer mb |
| 20260504220017 | 23 | 62 | 4.8 | 14.5 | 0.00 | 0.00 | 0.00 | 27 | 993.3 |
| 20260504214517 | 23 | 71 | 4.8 | 16.1 | 0.00 | 0.00 | 0.00 | 27 | 993.3 |
| 20260504213017 | 23 | 63 | 4.8 | 12.9 | 0.00 | 0.00 | 0.00 | 26 | 993.4 |
| 20260504211517 | 23 | 50 | 3.2 | 11.3 | 0.00 | 0.00 | 0.00 | 27 | 993.4 |
| 20260504210017 | 23 | 61 | 4.8 | 19.3 | 0.00 | 0.00 | 0.00 | 26 | 993.5 |
| 20260504204517 | 23 | 38 | 3.2 | 11.3 | 0.00 | 0.00 | 0.00 | 27 | 993.5 |
| 20260504203017 | 23 | 55 | 4.8 | 16.1 | 0.00 | 0.00 | 0.00 | 27 | 993.6 |
| 20260504201517 | 23 | 53 | 4.8 | 12.9 | 0.00 | 0.00 | 0.00 | 26 | 993.9 |
| 20260504200037 | 23 | 70 | 3.2 | 11.3 | 0.00 | 0.00 | 0.00 | 28 | 994.1 |
| 20260504194517 | 23 | 61 | 3.2 | 11.3 | 0.00 | 0.00 | 0.00 | 28 | 994.3 |
| 20260504193018 | 23 | 47 | 3.2 | 11.3 | 0.00 | 0.00 | 0.00 | 29 | 994.6 |
| 20260504191517 | 23 | 63 | 3.2 | 12.9 | 0.00 | 0.00 | 0.00 | 29 | 994.9 |
| 20260504190017 | 23 | 42 | 3.2 | 12.9 | 0.00 | 0.00 | 0.00 | 29 | 995.1 |
| 20260504184517 | 23 | 48 | 4.8 | 11.3 | 0.00 | 0.00 | 0.00 | 29 | 995.3 |
| 20260504183016 | 22 | 65 | 3.2 | 11.3 | 0.00 | 0.00 | 0.00 | 30 | 995.5 |
| 20260504181537 | 22 | 73 | 4.8 | 12.9 | 0.00 | 0.00 | 0.00 | 30 | 995.7 |
| 20260504180016 | 22 | 46 | 4.8 | 12.9 | 0.00 | 0.00 | 0.00 | 29 | 995.9 |
| 20260504174517 | 22 | 47 | 3.2 | 12.9 | 0.00 | 0.00 | 0.00 | 30 | 995.9 |
| 20260504173017 | 22 | 41 | 3.2 | 14.5 | 0.00 | 0.00 | 0.00 | 31 | 996.1 |
| 20260504171516 | 21 | 61 | 3.2 | 8.0 | 0.00 | 0.00 | 0.00 | 31 | 996.2 |
| 20260504081516 | 10 | 113 | 0.0 | 3.2 | 0.00 | 0.00 | 0.00 | 51 | 998.9 |
| 20260504050017 | 9 | 55 | 1.6 | 4.8 | 0.00 | 0.00 | 0.00 | 53 | 999.4 |
| 20260504044517 | 9 | 46 | 1.6 | 4.8 | 0.00 | 0.00 | 0.00 | 52 | 999.3 |
| 20260504043017 | 9 | 63 | 1.6 | 4.8 | 0.00 | 0.00 | 0.00 | 53 | 999.3 |
| 20260504041517 | 8 | 34 | 1.6 | 4.8 | 0.00 | 0.00 | 0.00 | 55 | 999.2 |
| 20260504040017 | 7 | 58 | 0.0 | 3.2 | 0.00 | 0.00 | 0.00 | 58 | 999.0 |
| 20260504034516 | 7 | 58 | 0.0 | 1.6 | 0.00 | 0.00 | 0.00 | 59 | 998.9 |
| 20260504033016 | 8 | 44 | 0.0 | 0.0 | 0.00 | 0.00 | 0.00 | 57 | 998.8 |
| 20260504031516 | 8 | 44 | 0.0 | 1.6 | 0.00 | 0.00 | 0.00 | 54 | 998.7 |
| 20260504030040 | 9 | 0.0 | 0.0 | 0.00 | 0.00 | 0.00 | 52 | 998.7 | |
| 20260504024517 | 9 | 44 | 0.0 | 0.0 | 0.00 | 0.00 | 0.00 | 53 | 998.7 |
| 20260504023017 | 9 | 45 | 0.0 | 1.6 | 0.00 | 0.00 | 0.00 | 53 | 998.7 |
| 20260504021521 | 9 | 44 | 0.0 | 0.0 | 0.00 | 0.00 | 0.00 | 53 | 998.5 |
| 20260504020017 | 9 | 50 | 0.0 | 0.0 | 0.00 | 0.00 | 0.00 | 53 | 998.5 |
| 20260504014517 | 9 | 179 | 0.0 | 1.6 | 0.00 | 0.00 | 0.00 | 53 | 998.4 |
| 20260504013017 | 9 | 46 | 0.0 | 1.6 | 0.00 | 0.00 | 0.00 | 53 | 998.3 |
| 20260504011519 | 10 | 44 | 0.0 | 0.0 | 0.00 | 0.00 | 0.00 | 52 | 998.2 |
| 20260504010017 | 10 | 0.0 | 0.0 | 0.00 | 0.00 | 0.00 | 50 | 998.1 | |
| 20260504004537 | 10 | 0.0 | 0.0 | 0.00 | 0.00 | 0.00 | 48 | 998.0 | |
| 20260504003037 | 11 | 268 | 0.0 | 0.0 | 0.00 | 0.00 | 0.00 | 46 | 997.8 |
| 20260504001517 | 12 | 291 | 0.0 | 0.0 | 0.00 | 0.00 | 0.00 | 43 | 997.7 |
| 20260504000017 | 12 | 313 | 0.0 | 0.0 | 0.00 | 0.00 | 0.00 | 41 | 997.5 |
| 20260503234517 | 13 | 85 | 0.0 | 1.6 | 0.00 | 0.00 | 0.00 | 40 | 997.4 |
| 20260503233017 | 13 | 55 | 0.0 | 6.4 | 0.00 | 0.00 | 0.00 | 39 | 997.3 |
| 20260503231516 | 13 | 35 | 0.0 | 3.2 | 0.00 | 0.00 | 0.00 | 38 | 997.0 |
| 20260503230016 | 14 | 355 | 1.6 | 6.4 | 0.00 | 0.00 | 0.00 | 37 | 997.0 |
| 20260503224516 | 14 | 52 | 1.6 | 11.3 | 0.00 | 0.00 | 0.00 | 37 | 997.0 |
| 20260503223016 | 15 | 31 | 1.6 | 9.7 | 0.00 | 0.00 | 0.00 | 36 | 997.0 |
| 20260503221517 | 15 | 34 | 1.6 | 8.0 | 0.00 | 0.00 | 0.00 | 36 | 997.1 |